• In Portugal
  • List of Countries
  • For 7 days
  • Water Temperature
  • Satellite Maps
  • Weather Map
  • Weather Widgets
  • user-avatar
    Login

    Hourly Weather Saurimo

    Today, 16 August, Thursday

    Time Temperature Precipitation Wind Pressure Humidity
    00:00 +25°C° 0 mm 1 mps 672 mmHg 26%
    01:00 +23°C° 0 mm 1 mps 672 mmHg 30%
    02:00 +21°C° 0 mm 2 mps 671 mmHg 31%
    03:00 +21°C° 0 mm 2 mps 671 mmHg 32%
    04:00 +20°C° 0 mm 2 mps 671 mmHg 32%
    05:00 +21°C° 0 mm 2 mps 672 mmHg 30%
    06:00 +22°C° 0 mm 3 mps 672 mmHg 28%
    07:00 +22°C° 0 mm 3 mps 673 mmHg 26%
    08:00 +27°C° 0 mm 3 mps 673 mmHg 21%
    09:00 +30°C° 0 mm 4 mps 674 mmHg 17%
    10:00 +35°C° 0 mm 4 mps 675 mmHg 12%
    11:00 +36°C° 0 mm 4 mps 674 mmHg 11%
    12:00 +37°C° 0 mm 3 mps 674 mmHg 10%
    13:00 +38°C° 0 mm 3 mps 673 mmHg 9%
    14:00 +38°C° 0 mm 3 mps 673 mmHg 9%
    15:00 +38°C° 0 mm 2 mps 672 mmHg 9%
    16:00 +37°C° 0 mm 2 mps 671 mmHg 9%
    17:00 +34°C° 0 mm 2 mps 671 mmHg 10%
    18:00 +31°C° 0 mm 1 mps 671 mmHg 12%
    19:00 +28°C° 0 mm 1 mps 671 mmHg 14%
    20:00 +27°C° 0 mm 1 mps 671 mmHg 15%
    21:00 +25°C° 0 mm 1 mps 671 mmHg 15%
    22:00 +24°C° 0 mm 1 mps 671 mmHg 16%
    23:00 +23°C° 0 mm 1 mps 671 mmHg 17%

    Tomorrow, 17 August, Friday

    Time Temperature Precipitation Wind Pressure Humidity
    00:00 +23°C° 0 mm 1 mps 671 mmHg 17%
    01:00 +22°C° 0 mm 1 mps 671 mmHg 18%
    02:00 +21°C° 0 mm 1 mps 670 mmHg 18%
    03:00 +19°C° 0 mm 2 mps 670 mmHg 19%
    04:00 +19°C° 0 mm 2 mps 670 mmHg 19%
    05:00 +19°C° 0 mm 2 mps 670 mmHg 18%
    06:00 +20°C° 0 mm 2 mps 671 mmHg 18%
    07:00 +21°C° 0 mm 2 mps 672 mmHg 17%
    08:00 +26°C° 0 mm 2 mps 672 mmHg 15%
    09:00 +30°C° 0 mm 2 mps 673 mmHg 12%
    10:00 +35°C° 0 mm 3 mps 674 mmHg 10%
    11:00 +37°C° 0 mm 2 mps 673 mmHg 9%
    12:00 +39°C° 0 mm 2 mps 673 mmHg 8%
    13:00 +41°C° 0 mm 1 mps 672 mmHg 6%
    14:00 +40°C° 0 mm 1 mps 672 mmHg 7%
    15:00 +39°C° 0 mm 1 mps 671 mmHg 7%
    16:00 +37°C° 0 mm 1 mps 670 mmHg 7%
    17:00 +34°C° 0 mm 1 mps 670 mmHg 9%
    18:00 +31°C° 0 mm 1 mps 670 mmHg 11%
    19:00 +28°C° 0 mm 1 mps 669 mmHg 12%
    20:00 +27°C° 0 mm 1 mps 670 mmHg 14%
    21:00 +26°C° 0 mm 1 mps 670 mmHg 15%
    22:00 +25°C° 0 mm 1 mps 670 mmHg 16%
    23:00 +24°C° 0 mm 1 mps 670 mmHg 16%

    Day after tomorrow, 18 August, Saturday

    Time Temperature Precipitation Wind Pressure Humidity
    00:00 +23°C° 0 mm 1 mps 670 mmHg 17%
    01:00 +23°C° 0 mm 1 mps 669 mmHg 18%
    02:00 +22°C° 0 mm 1 mps 669 mmHg 18%
    03:00 +22°C° 0 mm 1 mps 669 mmHg 19%
    04:00 +21°C° 0 mm 1 mps 668 mmHg 19%
    05:00 +21°C° 0 mm 2 mps 669 mmHg 18%
    06:00 +23°C° 0 mm 2 mps 670 mmHg 17%
    07:00 +24°C° 0 mm 2 mps 670 mmHg 16%
    08:00 +28°C° 0 mm 2 mps 671 mmHg 14%
    09:00 +32°C° 0 mm 2 mps 672 mmHg 11%
    10:00 +37°C° 0 mm 3 mps 673 mmHg 8%
    11:00 +39°C° 0 mm 3 mps 673 mmHg 8%
    12:00 +40°C° 0 mm 2 mps 672 mmHg 7%
    13:00 +41°C° 0 mm 2 mps 671 mmHg 6%
    14:00 +40°C° 0 mm 2 mps 671 mmHg 6%
    15:00 +40°C° 0 mm 2 mps 670 mmHg 7%
    16:00 +39°C° 0 mm 2 mps 669 mmHg 7%
    17:00 +36°C° 0 mm 2 mps 669 mmHg 9%
    18:00 +32°C° 0 mm 1 mps 669 mmHg 11%
    19:00 +29°C° 0 mm 1 mps 669 mmHg 13%
    20:00 +28°C° 0 mm 1 mps 669 mmHg 14%
    21:00 +27°C° 0 mm 1 mps 670 mmHg 15%
    22:00 +24°C° 0 mm 0 mps 670 mmHg 17%
    23:00 +25°C° 0 mm 1 mps 670 mmHg 17%

    19 August, Sunday

    Time Temperature Precipitation Wind Pressure Humidity
    00:00 +25°C° 0 mm 1 mps 669 mmHg 18%
    01:00 +24°C° 0 mm 1 mps 669 mmHg 18%
    02:00 +23°C° 0 mm 1 mps 669 mmHg 19%
    03:00 +23°C° 0 mm 1 mps 669 mmHg 20%
    04:00 +22°C° 0 mm 1 mps 668 mmHg 21%
    05:00 +23°C° 0 mm 1 mps 669 mmHg 20%
    06:00 +24°C° 0 mm 1 mps 670 mmHg 19%
    07:00 +25°C° 0 mm 1 mps 671 mmHg 18%
    08:00 +29°C° 0 mm 1 mps 672 mmHg 17%
    09:00 +33°C° 0 mm 1 mps 673 mmHg 15%
    10:00 +39°C° 0 mm 1 mps 674 mmHg 13%
    11:00 +40°C° 0 mm 1 mps 673 mmHg 13%
    12:00 +40°C° 0 mm 1 mps 672 mmHg 12%
    13:00 +41°C° 0 mm 1 mps 671 mmHg 11%
    14:00 +40°C° 0 mm 2 mps 671 mmHg 12%
    15:00 +39°C° 0 mm 2 mps 670 mmHg 13%
    16:00 +37°C° 0 mm 2 mps 669 mmHg 14%
    17:00 +35°C° 0 mm 2 mps 669 mmHg 17%
    18:00 +31°C° 0 mm 1 mps 669 mmHg 20%
    19:00 +29°C° 0 mm 1 mps 669 mmHg 23%
    20:00 +28°C° 0 mm 1 mps 670 mmHg 24%
    21:00 +27°C° 0 mm 1 mps 670 mmHg 26%
    22:00 +24°C° 0 mm 0 mps 670 mmHg 27%
    23:00 +23°C° 0 mm 0 mps 670 mmHg 28%

    20 August, Monday

    Time Temperature Precipitation Wind Pressure Humidity
    00:00 +23°C° 0 mm 0 mps 669 mmHg 30%
    01:00 +24°C° 0 mm 1 mps 669 mmHg 31%
    02:00 +21°C° 0 mm 0 mps 669 mmHg 32%
    03:00 +21°C° 0 mm 0 mps 669 mmHg 33%
    04:00 +20°C° 0 mm 0 mps 669 mmHg 34%
    05:00 +23°C° 0 mm 1 mps 670 mmHg 32%
    06:00 +24°C° 0 mm 1 mps 671 mmHg 30%
    07:00 +25°C° 0 mm 1 mps 671 mmHg 28%
    08:00 +29°C° 0 mm 1 mps 672 mmHg 23%
    09:00 +33°C° 0 mm 1 mps 673 mmHg 19%
    10:00 +37°C° 0 mm 1 mps 674 mmHg 14%
    11:00 +39°C° 0 mm 1 mps 673 mmHg 12%
    12:00 +41°C° 0 mm 1 mps 672 mmHg 11%
    13:00 +42°C° 0 mm 1 mps 672 mmHg 9%
    14:00 +41°C° 0 mm 1 mps 671 mmHg 10%
    15:00 +40°C° 0 mm 1 mps 670 mmHg 10%
    16:00 +38°C° 0 mm 2 mps 670 mmHg 11%
    17:00 +36°C° 0 mm 2 mps 670 mmHg 14%
    18:00 +32°C° 0 mm 2 mps 670 mmHg 17%
    19:00 +30°C° 0 mm 1 mps 670 mmHg 20%
    20:00 +29°C° 0 mm 1 mps 670 mmHg 23%
    21:00 +28°C° 0 mm 1 mps 670 mmHg 25%
    22:00 +27°C° 0 mm 1 mps 670 mmHg 28%
    23:00 +26°C° 0 mm 1 mps 670 mmHg 30%

    21 August, Tuesday

    Time Temperature Precipitation Wind Pressure Humidity
    00:00 +25°C° 0 mm 1 mps 670 mmHg 32%
    01:00 +25°C° 0 mm 1 mps 669 mmHg 34%
    02:00 +24°C° 0 mm 1 mps 669 mmHg 35%
    03:00 +24°C° 0 mm 1 mps 669 mmHg 36%
    04:00 +24°C° 0 mm 1 mps 669 mmHg 38%
    05:00 +24°C° 0 mm 1 mps 670 mmHg 37%
    06:00 +24°C° 0 mm 1 mps 671 mmHg 37%
    07:00 +25°C° 0 mm 2 mps 671 mmHg 36%
    08:00 +28°C° 0 mm 2 mps 672 mmHg 31%
    09:00 +31°C° 0 mm 2 mps 673 mmHg 26%
    10:00 +35°C° 0 mm 2 mps 673 mmHg 21%
    11:00 +37°C° 0 mm 2 mps 673 mmHg 18%
    12:00 +39°C° 0 mm 2 mps 672 mmHg 16%
    13:00 +41°C° 0 mm 1 mps 672 mmHg 14%
    14:00 +39°C° 0 mm 2 mps 671 mmHg 15%
    15:00 +38°C° 0 mm 2 mps 670 mmHg 16%
    16:00 +36°C° 0 mm 2 mps 670 mmHg 17%
    17:00 +34°C° 0 mm 2 mps 670 mmHg 20%
    18:00 +31°C° 0 mm 2 mps 670 mmHg 22%
    19:00 +29°C° 0 mm 2 mps 670 mmHg 25%
    20:00 +28°C° 0 mm 1 mps 670 mmHg 27%
    21:00 +27°C° 0 mm 1 mps 670 mmHg 28%
    22:00 +27°C° 0 mm 1 mps 670 mmHg 30%
    23:00 +26°C° 0 mm 1 mps 670 mmHg 31%
    Show more